17 mai 2022

Temps Code Temps Temp. Vue Des nuages Vent METAR/SPECI
15:55
V
23 °C 10 km+ 6.900 ft 140°   140° 8 kt METAR EHDL 171355Z AUTO 14008KT 050V180 9999 FEW056 OVC069 23/12 Q1019 BLU
15:25
V
23 °C 10 km+ - Var   Var 9 kt METAR EHDL 171325Z AUTO VRB09KT 9999 NCD 23/13 Q1020 BLU RMK CB INFO NOT AVBL
14:55
V
23 °C 10 km+ 36.000 ft Var   Var 8 kt METAR EHDL 171255Z AUTO VRB08KT 9999 SCT110 OVC360 23/13 Q1020 BLU
14:25
V
22 °C 10 km+ 8.000 ft Var   Var 6 kt METAR EHDL 171225Z AUTO VRB06KT 9999 FEW056 BKN080 OVC110 22/12 Q1020 BLU
13:55
V
22 °C 10 km+ 5.000 ft Var   Var 6 kt METAR EHDL 171155Z AUTO VRB06KT 9999 BKN050 BKN072 OVC078 22/12 Q1020 BLU
13:25
V
22 °C 10 km+ 4.900 ft Var   Var 5 kt METAR EHDL 171125Z AUTO VRB05KT 9999 BKN049 BKN053 OVC110 22/12 Q1021 BLU
12:55
V
21 °C 10 km+ 5.900 ft 080°   080° 3 kt METAR EHDL 171055Z AUTO 08003KT 9999 FEW054 OVC059 21/12 Q1021 BLU
12:25
V
20 °C 10 km+ 4.600 ft Var   Var 4 kt METAR EHDL 171025Z AUTO VRB04KT 9999 BKN046 OVC083 20/11 Q1021 BLU
11:55
V
19 °C 10 km+ 4.700 ft Var   Var 1 kt METAR EHDL 170955Z AUTO VRB01KT 9999 OVC047 19/11 Q1021 BLU
11:25
V
18 °C 10 km+ 5.300 ft Var   Var 2 kt METAR EHDL 170925Z AUTO VRB02KT 9999 BKN053 BKN060 BKN068 18/11 Q1021 BLU
10:55
V
18 °C 10 km+ 4.900 ft Var   Var 2 kt METAR EHDL 170855Z AUTO VRB02KT 9999 BKN049 OVC060 18/11 Q1021 BLU
10:25
V
18 °C 10 km+ 5.400 ft 320°   320° 3 kt METAR EHDL 170825Z AUTO 32003KT 230V330 9999 FEW039 SCT049 OVC054 18/10 Q1021 BLU
09:55
V
18 °C 10 km+ 5.100 ft 280°   280° 6 kt METAR EHDL 170755Z AUTO 28006KT 220V010 9999 OVC051 18/10 Q1021 BLU
09:25
V
18 °C 10 km+ 7.000 ft 280°   280° 7 kt METAR EHDL 170725Z AUTO 28007KT 220V350 9999 FEW061 BKN070 OVC076 18/11 Q1021 BLU
08:55
V
17 °C 10 km+ 14.000 ft 290°   290° 4 kt METAR EHDL 170655Z AUTO 29004KT 180V320 9999 FEW053 SCT098 OVC140 17/12 Q1021 BLU
08:25
V
17 °C 10 km+ 5.300 ft 270°   270° 5 kt METAR EHDL 170625Z AUTO 27005KT 210V360 9999 OVC053 17/12 Q1021 BLU
07:55
V
15 °C 10 km+ 5.000 ft 260°   260° 4 kt METAR EHDL 170555Z AUTO 26004KT 190V300 9999 OVC050 15/13 Q1020 BLU
07:25
V
14 °C 10 km+ 14.000 ft Var   Var 1 kt METAR EHDL 170525Z AUTO VRB01KT 9999 SCT049 OVC140 14/12 Q1020 BLU
06:55
V
12 °C 10 km+ 14.000 ft Var   Var 2 kt METAR EHDL 170455Z AUTO VRB02KT 9999 SCT060 OVC140 12/11 Q1020 BLU
06:25
V
12 °C 10 km+ 15.000 ft Var   Var 2 kt METAR EHDL 170425Z AUTO VRB02KT 9999 OVC150 12/10 Q1020 BLU
05:55
V
11 °C 10 km+ 17.000 ft Var   Var 1 kt METAR EHDL 170355Z AUTO VRB01KT 9999 OVC170 11/10 Q1020 BLU
05:25
V
11 °C 10 km+ 17.000 ft Var   000° 0 kt METAR EHDL 170325Z AUTO 00000KT 9999 OVC170 11/10 Q1020 BLU
04:55
V
11 °C 10 km+ 8.300 ft Var   Var 2 kt METAR EHDL 170255Z AUTO VRB02KT 9999 BKN083 OVC088 11/11 Q1019 BLU
04:25
V
11 °C 10 km+ 10.000 ft 040°   040° 1 kt METAR EHDL 170225Z AUTO 04001KT 9999 FEW068 SCT095 BKN100 11/10 Q1019 BLU
03:55
V
11 °C 10 km+ 8.800 ft 050°   050° 2 kt METAR EHDL 170155Z AUTO 05002KT 9999 OVC088 11/10 Q1019 BLU
03:25
V
11 °C 10 km+ 18.000 ft 100°   100° 2 kt METAR EHDL 170125Z AUTO 10002KT 9999 OVC180 11/10 Q1019 BLU
02:55
V
11 °C 10 km+ 8.300 ft 130°   130° 2 kt METAR EHDL 170055Z AUTO 13002KT 9999 OVC083 11/10 Q1019 BLU
02:25
V
11 °C 10 km+ 24.000 ft Var   Var 2 kt METAR EHDL 170025Z AUTO VRB02KT 9999 OVC240 11/09 Q1019 BLU
01:55
V
11 °C 10 km+ 29.000 ft 120°   120° 2 kt METAR EHDL 162355Z AUTO 12002KT 9999 OVC290 11/10 Q1019 BLU
01:25
V
11 °C 10 km+ 27.000 ft Var   Var 2 kt METAR EHDL 162325Z AUTO VRB02KT 9999 OVC270 11/10 Q1019 BLU
00:55
V
11 °C 10 km+ - 140°   140° 2 kt METAR EHDL 162255Z AUTO 14002KT 9999 NCD 11/10 Q1019 BLU
00:25
V
13 °C 10 km+ - 160°   160° 2 kt METAR EHDL 162225Z AUTO 16002KT 9999 NCD 13/11 Q1019 BLU

16 mai 2022

Temps Code Temps Temp. Vue Des nuages Vent METAR/SPECI
23:55
V
13 °C 10 km+ - 200°   200° 3 kt METAR EHDL 162155Z AUTO 20003KT 110V200 9999 NCD 13/11 Q1019 BLU
23:25
V
14 °C 10 km+ - 220°   220° 3 kt METAR EHDL 162125Z AUTO 22003KT 120V230 9999 NCD 14/11 Q1019 BLU
22:55
V
14 °C 10 km+ - 230°   230° 3 kt METAR EHDL 162055Z AUTO 23003KT 170V260 9999 NCD 14/11 Q1019 BLU
22:25
V
15 °C 10 km+ - 240°   240° 5 kt METAR EHDL 162025Z AUTO 24005KT 180V260 9999 NCD 15/11 Q1019 BLU
21:55
V
15 °C 10 km+ - 240°   240° 5 kt METAR EHDL 161955Z AUTO 24005KT 170V270 9999 NCD 15/12 Q1018 BLU
21:25
V
16 °C 10 km+ - 230°   230° 3 kt METAR EHDL 161925Z AUTO 23003KT 180V270 9999 NCD 16/12 Q1018 BLU
20:55
V
18 °C 10 km+ - 250°   250° 8 kt METAR EHDL 161855Z AUTO 25008KT 200V300 9999 NCD 18/12 Q1018 BLU
20:25
V
19 °C 10 km+ 24.000 ft Var   Var 9 kt METAR EHDL 161825Z AUTO VRB09KT 9999 BKN240 19/12 Q1018 BLU
19:55
M
19 °C 10 km+ 2.700 ft 260°   260° 10 kt METAR EHDL 161755Z AUTO 26010KT 210V340 9999 BKN027 BKN031 OVC210 19/12 Q1017 BLU
19:25
V
19 °C 10 km+ 3.200 ft 250°   250° 11 kt METAR EHDL 161725Z AUTO 25011KT 200V320 9999 SCT026 BKN032 BKN036 19/13 Q1017 BLU
18:55
M
19 °C 10 km+ 2.500 ft 260°   260° 9 kt METAR EHDL 161655Z AUTO 26009KT 200V340 9999 TS BKN025 OVC030 19/13 Q1017 BLU
18:25
M
20 °C 10 km+ 2.600 ft 260°   260° 13 kt METAR EHDL 161625Z AUTO 26013KT 190V320 9999 BKN026 OVC130 20/13 Q1017 BLU
17:55
V
20 °C 10 km+ 8.700 ft 270°   270° 15 kt METAR EHDL 161555Z AUTO 27015KT 200V320 9999 TS FEW027 SCT070 BKN087 20/13 Q1017 BLU
17:25
V
20 °C 10 km+ 4.000 ft 260°   260° 9 kt METAR EHDL 161525Z AUTO 26009KT 210V360 9999 SCT026 SCT031 BKN040 20/14 Q1016 BLU
16:55
M
20 °C 10 km+ 2.700 ft 260°   260° 6 kt METAR EHDL 161455Z AUTO 26006KT 200V330 9999 SCT023 OVC027 20/14 Q1016 WHT
16:25
M
19 °C 10 km+ 2.700 ft 270°   270° 9 kt METAR EHDL 161425Z AUTO 27009KT 190V320 9999 OVC027 19/14 Q1016 BLU
15:55
M
20 °C 10 km+ 2.600 ft 250°   250° 13 kt METAR EHDL 161355Z AUTO 25013KT 190V330 9999 -RA FEW023 BKN026 OVC030 20/15 Q1016 BLU
15:25
V
22 °C 10 km+ 10.000 ft 250°   250° 10 kt METAR EHDL 161325Z AUTO 25010KT 200V310 9999 FEW019 SCT072 OVC100 22/16 Q1015 BLU
14:55
V
23 °C 10 km+ 4.400 ft 240°   240° 12 kt METAR EHDL 161255Z AUTO 24012KT 180V300 9999 OVC044 23/16 Q1015 BLU
14:25
V
22 °C 10 km+ 8.700 ft 250°   250° 12 kt METAR EHDL 161225Z AUTO 25012KT 180V320 9999 -TSRA +DZ FEW025CB SCT064 BKN087 22/16 Q1015 BLU
13:55
V
25 °C 10 km+ 4.500 ft Var   Var 8 kt METAR EHDL 161155Z AUTO VRB08KT 9999 TS BKN045 FEW047CB BKN079 BKN103 25/14 Q1014 BLU
13:25
V
26 °C 10 km+ 9.900 ft 250°   250° 7 kt METAR EHDL 161125Z AUTO 25007KT 150V290 9999 FEW077 OVC099 26/13 Q1014 BLU
12:55
V
25 °C 10 km+ 9.000 ft Var   Var 6 kt METAR EHDL 161055Z AUTO VRB06KT 9999 BKN090 OVC095 25/12 Q1014 BLU
12:25
V
25 °C 10 km+ 9.900 ft Var   Var 6 kt METAR EHDL 161025Z AUTO VRB06KT 9999 BKN099 BKN150 25/13 Q1014 BLU
11:55
V
23 °C 10 km+ 11.000 ft 220°   220° 7 kt METAR EHDL 160955Z AUTO 22007KT 140V300 9999 OVC110 23/12 Q1014 BLU
11:25
V
22 °C 10 km+ 10.000 ft 150°   150° 5 kt METAR EHDL 160925Z AUTO 15005KT 080V240 9999 SCT077 SCT090 OVC100 22/12 Q1014 BLU
10:55
V
21 °C 10 km+ 7.700 ft 160°   160° 6 kt METAR EHDL 160855Z AUTO 16006KT 080V200 9999 BKN077 BKN084 OVC089 21/12 Q1014 BLU
10:25
V
20 °C 10 km+ 8.000 ft 150°   150° 5 kt METAR EHDL 160825Z AUTO 15005KT 080V210 9999 SCT074 BKN080 BKN085 20/11 Q1014 BLU
09:55
V
21 °C 10 km+ 7.800 ft 170°   170° 7 kt METAR EHDL 160755Z AUTO 17007KT 110V260 9999 FEW038CB BKN078 OVC085 21/11 Q1014 BLU
09:25
V
19 °C 10 km+ 8.500 ft 140°   140° 6 kt METAR EHDL 160725Z AUTO 14006KT 090V220 9999 OVC085 19/11 Q1013 BLU
08:55
V
18 °C 10 km+ 16.000 ft 140°   140° 6 kt METAR EHDL 160655Z AUTO 14006KT 100V200 9999 FEW085 OVC160 18/10 Q1013 BLU
08:25
V
18 °C 10 km+ 17.000 ft Var   Var 7 kt METAR EHDL 160625Z AUTO VRB07KT 9999 OVC170 18/09 Q1013 BLU
07:55
V
18 °C 10 km+ 24.000 ft Var   Var 7 kt METAR EHDL 160555Z AUTO VRB07KT 9999 OVC240 18/09 Q1013 BLU
07:25
V
17 °C 10 km+ - 110°   110° 6 kt METAR EHDL 160525Z AUTO 11006KT 040V200 9999 NCD 17/09 Q1013 BLU
06:55
V
15 °C 10 km+ - 110°   110° 7 kt METAR EHDL 160455Z AUTO 11007KT 050V200 9999 FEW180 15/09 Q1013 BLU
06:25
V
15 °C 10 km+ - 100°   100° 5 kt METAR EHDL 160425Z AUTO 10005KT 070V210 9999 NCD 15/09 Q1013 BLU
05:55
V
15 °C 10 km+ - 100°   100° 6 kt METAR EHDL 160355Z AUTO 10006KT 030V190 9999 NCD 15/09 Q1013 BLU
05:25
V
15 °C 10 km+ - 100°   100° 5 kt METAR EHDL 160325Z AUTO 10005KT 020V170 9999 FEW210 15/09 Q1013 BLU
04:55
V
15 °C 10 km+ 21.000 ft Var   Var 8 kt METAR EHDL 160255Z AUTO VRB08KT 9999 OVC210 15/09 Q1013 BLU
04:25
V
15 °C 10 km+ 30.000 ft Var   Var 9 kt METAR EHDL 160225Z AUTO VRB09KT 9999 OVC300 15/08 Q1013 BLU
03:55
V
15 °C 10 km+ 30.000 ft Var   Var 6 kt METAR EHDL 160155Z AUTO VRB06KT 9999 OVC300 15/09 Q1014 BLU
03:25
V
16 °C 10 km+ - 100°   100° 6 kt METAR EHDL 160125Z AUTO 10006KT 9999 FEW310 SCT380 16/09 Q1014 BLU
02:55
V
16 °C 10 km+ 33.000 ft Var   Var 8 kt METAR EHDL 160055Z AUTO VRB08KT 9999 OVC330 16/09 Q1014 BLU
02:25
V
16 °C 10 km+ 18.000 ft 100°   100° 6 kt METAR EHDL 160025Z AUTO 10006KT 050V190 9999 OVC180 16/09 Q1014 BLU
01:55
V
17 °C 10 km+ 19.000 ft 100°   100° 7 kt METAR EHDL 152355Z AUTO 10007KT 360V160 9999 OVC190 17/09 Q1014 BLU
01:25
V
17 °C 10 km+ 18.000 ft 080°   080° 8 kt METAR EHDL 152325Z AUTO 08008KT 350V160 9999 OVC180 17/08 Q1015 BLU
00:55
V
17 °C 10 km+ 19.000 ft 080°   080° 9 kt METAR EHDL 152255Z AUTO 08009KT 350V140 9999 OVC190 17/08 Q1015 BLU
00:25
V
18 °C 10 km+ 19.000 ft 080°   080° 7 kt METAR EHDL 152225Z AUTO 08007KT 360V150 9999 OVC190 18/08 Q1015 BLU

15 mai 2022

Temps Code Temps Temp. Vue Des nuages Vent METAR/SPECI
23:55
V
17 °C 10 km+ 19.000 ft 080°   080° 6 kt METAR EHDL 152155Z AUTO 08006KT 360V130 9999 OVC190 17/08 Q1016 BLU
23:25
V
18 °C 10 km+ 19.000 ft 080°   080° 7 kt METAR EHDL 152125Z AUTO 08007KT 350V130 9999 OVC190 18/08 Q1016 BLU
22:55
V
19 °C 10 km+ - 080°   080° 7 kt METAR EHDL 152055Z AUTO 08007KT 360V130 9999 SCT240 19/08 Q1016 BLU
22:25
V
18 °C 10 km+ - 070°   070° 7 kt METAR EHDL 152025Z AUTO 07007KT 360V110 9999 FEW250 18/08 Q1015 BLU
21:55
V
18 °C 10 km+ - 070°   070° 6 kt METAR EHDL 151955Z AUTO 07006KT 350V100 9999 NCD 18/07 Q1015 BLU
21:25
V
20 °C 10 km+ 24.000 ft 080°   080° 6 kt METAR EHDL 151925Z AUTO 08006KT 010V120 9999 BKN240 20/07 Q1015 BLU
20:55
V
21 °C 10 km+ 24.000 ft 070°   070° 7 kt METAR EHDL 151855Z AUTO 07007KT 360V110 9999 OVC240 21/07 Q1015 BLU
20:25
V
22 °C 10 km+ 21.000 ft 080°   080° 7 kt METAR EHDL 151825Z AUTO 08007KT 010V150 9999 OVC210 22/07 Q1015 BLU
19:55
V
23 °C 10 km+ 21.000 ft Var   Var 8 kt METAR EHDL 151755Z AUTO VRB08KT 9999 OVC210 23/07 Q1015 BLU
19:25
V
24 °C 10 km+ 21.000 ft Var   Var 10 kt METAR EHDL 151725Z AUTO VRB10KT 9999 OVC210 24/06 Q1016 BLU
18:55
V
25 °C 10 km+ 21.000 ft Var   Var 9 kt METAR EHDL 151655Z AUTO VRB09KT 9999 BKN210 25/06 Q1016 BLU
18:25
V
25 °C 10 km+ 21.000 ft 100°   100° 7 17 kt METAR EHDL 151625Z AUTO 10007G17KT 030V200 9999 BKN210 25/05 Q1016 BLU
17:55
V
25 °C 10 km+ - Var   Var 9 kt METAR EHDL 151555Z AUTO VRB09KT 9999 SCT210 25/05 Q1016 BLU
17:25
V
25 °C 10 km+ 21.000 ft Var   Var 9 kt METAR EHDL 151525Z AUTO VRB09KT 9999 BKN210 25/05 Q1017 BLU
16:55
V
25 °C 10 km+ - 120°   120° 9 kt METAR EHDL 151455Z AUTO 12009KT 050V210 9999 NCD 25/04 Q1017 BLU
16:25
V
25 °C 10 km+ 31.000 ft 090°   090° 7 kt METAR EHDL 151425Z AUTO 09007KT 070V220 9999 BKN310 25/05 Q1017 BLU
15:55
V
25 °C 10 km+ 29.000 ft Var   Var 10 kt METAR EHDL 151355Z AUTO VRB10KT 9999 OVC290 25/06 Q1017 BLU
Données plus anciennes

Télécharge notre application

Un accès facile à toute la météo aéronautique sur ton téléphone portable et ta tablette.
Avec de nombreuses fonctionnalités non disponibles sur le site Web, comme la prise en charge hors ligne et une liste personnelle d'aéroports.